Regional Weather Roundup
Issued by NWS

Home | Current Version | Previous Version | Text Only | Print | Product List | Glossary On
Versions: 1 2 3 4 5 6 7 8 9 10 11 12 13 14 15 16 17 18 19 20 21 22 23 24 25 26 27 28 29 30 31 32 33 34 35 36 37 38 39 40 41 42 43 44 45 46 47 48 49 50
000
ASHW40 PHFO 222233
RWRHI

WEATHER ROUNDUP FOR HAWAII
NATIONAL WEATHER SERVICE HONOLULU HI
1200 PM HST SUN JAN 22 2017

THIS IS AN AUTOMATED REPORT THAT HAS NOT BEEN QUALITY CONTROLLED.

NOTE..."FAIR" INDICATES FEW OR NO CLOUDS BELOW 12,000 FEET WITH NO
SIGNIFICANT WEATHER AND/OR OBSTRUCTIONS TO VISIBILITY.

* - THESE SITES REPORT LIMITED FIELDS

HIZ001>004-222300-
KAUAI-NIIHAU-

CITY           SKY/WX    TMP DP  RH WIND       PRES   REMARKS
LIHUE APT      CLOUDY    76  61  59 NE20      30.24F
PORT ALLEN*      N/A     77 N/A N/A NE31G43     N/A
POIPU*           N/A     75 N/A N/A NE14G25     N/A
PRINCEVILLE*     N/A     70 N/A N/A SE12G23     N/A
KOKOLE POINT*  NOT AVBL
MOLOAA DAIRY*    N/A     73  59  60 E10G21      N/A
WAIMEA HTS*    NOT AVBL
PUU OPAE*      NOT AVBL
PUU LUA*       NOT AVBL
MAKAHA RIDGE*    N/A     73  54  49 SW3G13      N/A
$$

HIZ005>011-222300-
OAHU-

CITY           SKY/WX    TMP DP  RH WIND       PRES   REMARKS
HONOLULU       CLOUDY    79  57  46 E29G40    30.17F
KALAELOA       CLOUDY    81  58  45 NE14G30   30.17F
KANEOHE MCB    PTSUNNY   78  61  55 NE14G21   30.19
WHEELER FIELD  FAIR      71  59  66 E18       30.17F
BELLOWS*         N/A    N/A N/A N/A NE26G33     N/A
KAHUKU*          N/A    N/A N/A N/A NE17G29     N/A
WHEELER*       NOT AVBL
WAIANAE HARBOR NOT AVBL
DILLINGHAM*      N/A     73  54  49 MISG        N/A
KAHUKU TRN*      N/A     66  50  55 W18G37      N/A
KAWAILOA*        N/A     70  59  68 E22G41      N/A
KII*             N/A    N/A N/A N/A E26G36      N/A
MAKUA RANGE*     N/A     75  55  50 W21G38      N/A
OAHU FOREST NW NOT AVBL
SCHOFIELD BRK*   N/A     70  59  68 MISG        N/A
SCHOFIELD S*   NOT AVBL
WAIANAE VLY*   NOT AVBL
KUAOKALA*      NOT AVBL
HONOULIUULI*   NOT AVBL
MOKUOLOE IS*   NOT AVBL
PALEHUA*       NOT AVBL
WAIAWA PHB*    NOT AVBL
$$

HIZ012>013-222300-
MOLOKAI-

CITY           SKY/WX    TMP DP  RH WIND       PRES   REMARKS
MOLOKAI AIRPT  MOSUNNY   75  59  57 NE22G39   30.15F
KALAUPAPA      NOT AVBL
MAKAPULAPAI*     N/A    N/A N/A N/A E30G41      N/A
MOLOKAI 1*     NOT AVBL
PUU ALII*        N/A     53  53 100 NE3G18      N/A
$$

HIZ016-222300-
KAHOOLAWE-

CITY           SKY/WX    TMP DP  RH WIND       PRES   REMARKS
KAHOOLAWE*     NOT AVBL
HAKIOAWA*        N/A     74  59  59 MISG      30.53F
HONOKANAIA*      N/A     77  56  47 NE24G47   30.12S
KANELOA*         N/A     73  59  60 E31G51    30.22F
KEALIALALO*    NOT AVBL
LUA MAKIKA*    NOT AVBL
$$

HIZ014>015-222300-
LANAI-

CITY           SKY/WX    TMP DP  RH WIND       PRES   REMARKS
LANAI CITY     NOT AVBL
LANAI 1*       NOT AVBL
$$

HIZ017>028-222300-
MAUI-

CITY           SKY/WX    TMP DP  RH WIND       PRES   REMARKS
KAHULUI        MOSUNNY   77  58  51 E24G40    30.17F
KAPALUA-W MAUI MOSUNNY   75  59  57 E30G43    30.16
HANA AIRPORT   CLOUDY    73  59  60 E13       30.24F
HANA*            N/A     73 N/A N/A E13G20      N/A
HALEAKALA SUMM   N/A     55  19  24 W7G43       N/A
MAALAEA BAY*     N/A     79 N/A N/A N22G40      N/A
HALEAKALA*     NOT AVBL
KAUPO GAP*     NOT AVBL
KULA 1*          N/A     62  44  51 NW3         N/A
$$

HIZ023>026-222300-
BIG ISLAND OF HAWAII COAST AND LOWER SLOPES-

CITY           SKY/WX    TMP DP  RH WIND       PRES   REMARKS
KAILUA KONA    MOSUNNY   87  60  40 NW8       30.06F
HILO           CLOUDY    71  64  78 SW7       30.23F
HONOKAA*         N/A     64 N/A N/A VRB1        N/A
KAWAIHAE MWT*  NOT AVBL
KAWAIHAE*        N/A     79 N/A N/A W9        30.07F
SOUTH POINT*     N/A     72 N/A N/A VRB33G45    N/A
UPOLU AIRPORT* NOT AVBL
KAMUELA*       MOCLDY    63  59  88 NE32      30.20F
HAKALAU*         N/A     52  51  96 SE6G13      N/A
KALOKO-HONOKO*   N/A     82  64  54 SW8       30.06F
PALI 2*          N/A     66  55  68 S29G40      N/A
KEALAKOMO*       N/A     79  61  53 N23G32      N/A
KAUPULEHU*     NOT AVBL
KAPAPALA*      NOT AVBL
LOWER KAHUKU*    N/A     66  57  72 E5G23       N/A
PUHE CS*         N/A     82  54  36 SW3G22      N/A
PUHO CS*         N/A     82  64  54 W3          N/A
PTA KEAMUKU*     N/A     66  55  68 CALM        N/A
WAIKOLOA*      NOT AVBL
$$

HIZ027>028-222300-
BIG ISLAND OF HAWAII INTERIOR AND SUMMMITS-

CITY           SKY/WX    TMP DP  RH WIND       PRES   REMARKS
BRADSHAW FIELD SUNNY     59  48  68 S17       30.38F
MK VISITOR CEN   N/A     54  16  22 SE6         N/A
MAUNA KEA*       N/A     36  12  38 S6          N/A
MAUNA LOA*       N/A    N/A N/A N/A MISG        N/A
MAUNA LOA 1*   NOT AVBL
PTA KIPUKA*      N/A     77  50  38 NW7G14      N/A
PTA RANGE 17*    N/A     52  34  50 SE21G33     N/A
PTA WEST*        N/A     72  46  40 E21G35      N/A
NENE CABIN*      N/A     55  50  82 SE8G18      N/A
AHUMOA*        NOT AVBL
PTA PORTABLE*  NOT AVBL
PUU MALI*        N/A     63 N/A N/A NW5G10      N/A
$$

HIC003-222300-
NORTHWEST ISLANDS-

CITY           SKY/WX    TMP DP  RH WIND       PRES   REMARKS
MIDWAY ISLAND  CLOUDY    73  66  78 S15       30.12S
MIDWAY NOS*      N/A     73 N/A N/A MISG      30.10F
FRENCH FRIGATE NOT AVBL
$$

PHZ110>124-180-222300-
BUOY REPORTS

STATION/POSITION TIME  TEMP    WIND        PRES    WAVE   SWELL
                       AIR SEA DIR/SP/G            HT/PER HT/DIR
                 (UTC) (F)     (DEG/KT/KT) (MB)    (FT/S) (FT/D)
BUOY 51001       2210   72 74   90/ 17/ 23 1024.3
BUOY 51101       2150   73 75   90/ 21/ 25 1024.8F  10/10
BUOY 51100       NOT AVBL
BUOY 51002       2210   74 78   90/ 21/ 35 1017.6
BUOY 51003       2150   76 78   70/ 21/ 25 1019.2F  14/10  10/ 60
BUOY 51004       2150      77   70/ 25/ 31 1018.6F  16/11  11
BARBERS PT BUOY  NOT AVBL
WAIMEA BAY BUOY  2202      74                N/A    11/10   5/ 20
KAILUA BAY BUOY  2204      76                N/A    14/10   5/ 20
LANAI BUOY       2145      77                N/A     3/11   2/300
BARBERS PT 2     2139      77                N/A     7/11   3/310
PAUWELA MAUI     2209      75                N/A    12/11   7/360
HILO             2212      76                N/A    12/11   7/ 20
KANEOHE BAY BUOY 2206      75                N/A    12/11   5/ 30
HANALEI KAUAI    2152      75                N/A    13/11   7/ 30
KAHULUI HARBOR   2200   74 74   60/ 23/ 32 1021.9
HONOLULU HARBOR  2200   75 75   80/  8/ 14 1022.2
KILO NALU        NOT AVBL
HILO HARBOR      2200   71 72  280/  5/ 12 1023.2
MOKUOLOE         2136   74 74   80/ 14/ 23 1023.4F
NAWILIWILI       2200   73      50/ 15/ 21 1023.4
WHOTS BUOY       NOT AVBL
BUOY 51028       NOT AVBL
$$

......................KEY........................................
  SKY/WX - SKY CONDITIONS/PRESENT WEATHER
  TMP    - TEMPERATURE IN FAHRENHEIT
  DWPT   - DEWPOINT IN FAHRENHEIT
  RH     - RELATIVE HUMIDITY IN PERCENT
  WIND   - DIRECTION AND SPEED /MPH FOR ISLANDS...KTS FOR BUOYS/
  PRES   - MEAN SEA LEVEL PRESSURE IN INCHES OF HG
  VSB    - VISIBILITY IN MILES
  HX     - HEAT INDEX
  WCI    - WIND CHILL INDEX
  VRB    - VARIABLE WIND DIRECTION
  N/A    - NOT AVAILABLE



USA.gov is the U.S. government's official web portal to all federal, state and local government web resources and services.